FW0689 Weather Reports


Display with metric or nautical units.
time (UTC)temp
F
wind
direction
speed
MPH
gust
MPH
rain 1hr
in
rain 24hr
in
rain mn
in
humidity
%
barometer
mb
20260505041126 48 15 0.0 0.0 0.00 0.00 0.00 40 1016.7
20260505040225 48 14 0.0 0.0 0.00 0.00 0.00 40 1016.7
20260505034226 48 38 0.0 0.0 0.00 0.00 0.00 40 1016.7
20260505033325 48 46 0.0 0.0 0.00 0.00 0.00 40 1016.6
20260505032325 48 15 0.0 0.0 0.00 0.00 0.00 40 1016.7
20260505031327 48 20 0.0 0.0 0.00 0.00 0.00 40 1016.9
20260505030425 48 26 0.0 0.0 0.00 0.00 0.00 40 1016.9
20260505025426 48 11 0.0 0.0 0.00 0.00 0.00 40 1016.9
20260505024425 48 18 0.0 0.0 0.00 0.00 0.00 39 1017.0
20260505023425 48 1 0.0 0.0 0.00 0.00 0.00 39 1017.1
20260505022426 48 11 0.0 0.0 0.00 0.00 0.00 39 1017.1
20260505015541 49 13 0.0 0.0 0.00 0.00 0.00 39 1017.1
20260505014541 49 11 0.0 0.0 0.00 0.00 0.00 39 1017.2
20260505012525 49 20 0.0 0.0 0.00 0.00 0.00 39 1017.3
20260505011526 49 31 0.0 0.0 0.00 0.00 0.00 39 1017.2
20260505010526 49 13 0.0 0.0 0.00 0.00 0.00 39 1017.3
20260505005525 49 11 0.0 0.0 0.00 0.00 0.00 39 1017.3
20260505004624 49 14 0.0 0.0 0.00 0.00 0.00 38 1017.3
20260505003625 49 14 0.0 0.0 0.00 0.00 0.00 39 1017.4
20260505002724 50 5 0.0 0.0 0.00 0.00 0.00 39 1017.3
20260505000726 50 25 0.0 0.0 0.00 0.00 0.00 38 1017.4
20260504235726 50 13 0.0 0.0 0.00 0.00 0.00 38 1017.5
20260504234726 50 348 0.0 0.0 0.00 0.00 0.00 38 1017.7
20260504233824 50 1 0.0 0.0 0.00 0.00 0.00 38 1017.7
20260504232825 51 357 0.0 0.0 0.00 0.00 0.00 38 1017.8
20260504231826 51 7 0.0 0.0 0.00 0.00 0.00 38 1017.8
20260504230825 51 355 0.0 0.0 0.00 0.00 0.00 38 1017.9
20260504223926 51 13 0.0 0.0 0.00 0.00 0.00 38 1017.9
20260504222926 52 1 0.0 0.0 0.00 0.00 0.00 38 1018.0
20260504221926 52 7 0.0 0.0 0.00 0.00 0.00 38 1018.0
20260504215111 52 3 0.0 0.0 0.00 0.00 0.00 37 1018.1
20260504214111 52 4 0.0 0.0 0.00 0.00 0.00 37 1018.2
20260504214011 52 359 0.0 0.0 0.00 0.00 0.00 37 1018.2
20260504213010 53 5 0.0 0.0 0.00 0.00 0.00 37 1018.3
20260504211010 53 5 0.0 0.0 0.00 0.00 0.00 37 1018.5
20260504210011 54 3 0.0 0.0 0.00 0.00 0.00 37 1018.3
20260504205111 54 21 0.0 0.0 0.00 0.00 0.00 37 1018.3
20260504203112 55 16 0.0 0.0 0.00 0.00 0.00 36 1018.4
20260504202210 55 14 0.0 0.0 0.00 0.00 0.00 35 1018.3
20260504200312 56 19 0.0 0.0 0.00 0.00 0.00 36 1018.3
20260504195409 56 22 0.0 0.0 0.00 0.00 0.00 36 1018.3
20260504194412 56 15 0.0 0.0 0.00 0.00 0.00 36 1018.1
20260504193411 57 18 0.0 0.0 0.00 0.00 0.00 36 1018.2
20260504190425 58 2 0.0 0.0 0.00 0.00 0.00 36 1017.8
20260504185411 58 7 0.0 0.0 0.00 0.00 0.00 36 1017.8
20260504184509 58 2 0.0 0.0 0.00 0.00 0.00 36 1017.8
20260504183511 59 355 0.0 0.0 0.00 0.00 0.00 36 1017.7
20260504181610 59 23 0.0 0.0 0.00 0.00 0.00 35 1017.6
20260504175612 60 19 0.0 0.0 0.00 0.00 0.00 35 1017.5
20260504174710 60 22 0.0 0.0 0.00 0.00 0.00 35 1017.5
20260504173710 60 26 0.0 0.0 0.00 0.00 0.00 35 1017.5
20260504172711 60 18 0.0 0.0 0.00 0.00 0.00 35 1017.3
20260504172612 60 21 0.0 0.0 0.00 0.00 0.00 35 1017.3
20260504171610 60 356 0.0 0.0 0.00 0.00 0.00 35 1017.4
20260504170611 60 9 0.0 0.0 0.00 0.00 0.00 35 1017.3
20260504150810 61 7 0.0 0.0 0.00 0.00 0.00 34 1017.4
20260504140927 62 310 0.0 0.0 0.00 0.00 0.00 35 1017.7
20260504120310 66 244 0.0 0.0 0.00 0.00 0.00 36 1017.6
20260504100511 65 180 0.0 0.0 0.00 0.00 0.00 31 1018.2
20260504080808 59 204 0.0 0.0 0.00 0.00 0.00 34 1018.3
20260504050110 57 112 0.0 0.0 0.00 0.00 0.00 35 1017.1